Overview Statistics Trail Chart Weather Telemetry Raw packets
 

This is the latest recevied weather packets stored in our database for station/object VO2AGO. If no packets are shown the sender has not sent any weather packets the latest 10 day(s).

<< 22 23 24 25 26 27 28 >>
Time Temp. Humidity Pressure Rain* Wind** Luminosity Snow
1777897701 2.78° C - - - 0 m/s 611 W/m² -
1777897251 2.78° C - - - 0 m/s 508 W/m² -
1777896801 2.78° C - - - 0 m/s 544 W/m² -
1777896351 2.22° C - - - 0 m/s 452 W/m² -
1777895900 2.22° C - - - 0 m/s 370 W/m² -
1777895450 1.67° C - - - 0 m/s 305 W/m² -
1777895001 1.67° C - - - 0 m/s 344 W/m² -
1777894550 1.67° C - - - 0 m/s 350 W/m² -
1777894100 1.11° C - - - 0 m/s 306 W/m² -
1777893650 1.11° C - - - 0 m/s 286 W/m² -
1777893200 1.11° C - - - 0 m/s 238 W/m² -
1777892749 1.11° C - - - 0 m/s 207 W/m² -
1777892300 1.11° C - - - 0 m/s 177 W/m² -
1777891850 1.11° C - - - 0 m/s 194 W/m² -
1777891400 1.11° C - - - 0 m/s 164 W/m² -
1777890950 1.11° C - - - 0 m/s 168 W/m² -
1777890500 0.56° C - - - 0 m/s 163 W/m² -
1777890050 0.56° C - - - 0 m/s 122 W/m² -
1777889599 0.56° C - - - 0 m/s 120 W/m² -
1777889150 0.56° C - - - 0 m/s 93 W/m² -
1777888701 0.56° C - - - 0 m/s 65 W/m² -
1777888250 0° C - - - 0 m/s 46 W/m² -
1777887800 0° C - - - 0 m/s 40 W/m² -
1777887350 0° C - - - 0 m/s 38 W/m² -
1777886901 0° C - - - 0 m/s 36 W/m² -

* Rain since midnight (hover to see other rain measurements)
** Current wind speed in m/s (hover to see current wind gust speed)